Back to catalog

STARLINK-37271

AliveCommunicationsVLEO
NORAD 68722·PAYLOAD·🇺🇸 United States

Launched Apr 14, 2026 from Cape Canaveral Space Force Station

Loading…

Next Passes (next 24 hours)

TLE

FreshSource: CelesTrak SupGP

Epoch: Sep 14, 2026, 22:28 UTC

1 68722C 26081Z   26257.93659722  .00021162  00000+0  62510-3 0  2572
2 68722  53.1585 231.5291 0001527  93.7183  26.4749 15.34387046    17

Track STARLINK-37271 in real time with AllMySat

Download on the App Store